This is the latest recevied weather packets stored in our database for station/object KB1WCR. If no packets are shown the sender has not sent any weather packets the latest 10 day(s).
| Time | Temp. | Humidity | Pressure | Rain* | Wind** | Luminosity | Snow |
|---|---|---|---|---|---|---|---|
| 1778024847 | 19.44° C | 72% | 1006.4 hPa | 0 mm | - | 3 W/m² | - |
| 1778024544 | 20° C | 71% | 1005.8 hPa | 0 mm | - | 6 W/m² | - |
| 1778024240 | 20.56° C | 67% | 1005.9 hPa | 0 mm | - | 13 W/m² | - |
| 1778023939 | 20.56° C | 65% | 1005.9 hPa | 0 mm | - | 8 W/m² | - |
| 1778023635 | 20.56° C | 65% | 1006.2 hPa | 0 mm | - | 12 W/m² | - |
| 1778023333 | 20.56° C | 65% | 1006.3 hPa | 0 mm | - | 9 W/m² | - |
| 1778023030 | 20.56° C | 64% | 1006.1 hPa | 0 mm | - | 4 W/m² | - |
| 1778022729 | 21.11° C | 64% | 1006.5 hPa | 0 mm | - | 4 W/m² | - |
| 1778022426 | 21.11° C | 63% | 1006.6 hPa | 0 mm | - | 3 W/m² | - |
| 1778022123 | 21.11° C | 62% | 1006.5 hPa | 0 mm | - | 3 W/m² | - |
| 1778021819 | 20° C | 63% | 1006.3 hPa | 0 mm | - | 3 W/m² | - |
| 1778021516 | 20° C | 63% | 1006.3 hPa | 0 mm | - | 2 W/m² | - |
| 1778021211 | 20° C | 62% | 1006.5 hPa | 0 mm | - | 3 W/m² | - |
| 1778020910 | 20° C | 61% | 1004.7 hPa | 0 mm | - | 8 W/m² | - |
| 1778020607 | 20° C | 61% | 1004.3 hPa | 0 mm | - | 31 W/m² | - |
| 1778020302 | 20° C | 61% | 1004.2 hPa | 0 mm | - | 72 W/m² | - |
| 1778019993 | 20.56° C | 60% | 1004.3 hPa | 0 mm | - | 78 W/m² | - |
| 1778019690 | 20.56° C | 60% | 1004.1 hPa | 0 mm | - | 93 W/m² | - |
| 1778019387 | 20.56° C | 59% | 1004.1 hPa | 0 mm | - | 107 W/m² | - |
| 1778019083 | 20.56° C | 60% | 1004.1 hPa | 0 mm | - | 111 W/m² | - |
| 1778018781 | 21.11° C | 59% | 1004.1 hPa | 0 mm | - | 109 W/m² | - |
| 1778018478 | 21.11° C | 58% | 1004.3 hPa | 0 mm | - | 111 W/m² | - |
| 1778018176 | 21.11° C | 59% | 1004 hPa | 0 mm | - | 115 W/m² | - |
| 1778017874 | 21.11° C | 59% | 1004 hPa | 0 mm | - | 117 W/m² | - |
| 1778017572 | 21.11° C | 59% | 1003.8 hPa | 0 mm | - | 139 W/m² | - |
* Rain latest hour (hover to see other rain measurements)
** Current wind speed in m/s (hover to see current wind gust speed)